Overview Statistics Trail Chart Weather Telemetry Raw packets
 

This is the latest recevied weather packets stored in our database for station/object OM5AST-13. If no packets are shown the sender has not sent any weather packets the latest 10 day(s).

<< 1 2 3 4 5 >>
Time Temp. Humidity Pressure Rain* Wind** Luminosity Snow
1788605035 21.11° C 58% - 0 mm - 0 W/m² -
1788603835 21.11° C 57% - 0 mm - 0 W/m² -
1788602635 20.56° C 57% - 0 mm - 0 W/m² -
1788601435 20.56° C 56% - 0 mm - 0 W/m² -
1788600236 20.56° C 57% - 0 mm - 0 W/m² -
1788599035 20° C 57% - 0 mm - 0 W/m² -
1788597835 20.56° C 55% - 0 mm - 0 W/m² -
1788596635 20.56° C 54% - 0 mm - 0 W/m² -
1788595435 20.56° C 53% - 0 mm - 0 W/m² -
1788594235 20.56° C 52% - 0 mm - 0 W/m² -
1788593035 20.56° C 52% - 0 mm - 0 W/m² -
1788591835 21.11° C 52% - 0 mm - 0 W/m² -
1788590635 21.11° C 50% - 0 mm - 0 W/m² -
1788589435 21.11° C 53% - 0 mm - 0 W/m² -
1788588235 21.67° C 52% - 0 mm - 0 W/m² -
1788587035 21.67° C 53% - 0 mm - 0 W/m² -
1788585835 21.67° C 52% - 0 mm - 0 W/m² -
1788584635 21.67° C 50% - 0 mm - 0 W/m² -
1788583435 22.22° C 51% - 0 mm - 0 W/m² -
1788582235 22.22° C 52% - 0 mm - 0 W/m² -
1788581035 23.33° C 55% - 0 mm - 0 W/m² -
1788579835 24.44° C 51% - 0 mm - 0 W/m² -
1788578635 25.56° C 46% - 0 mm - 0 W/m² -
1788577435 25.56° C 45% - 0 mm - 0 W/m² -
1788576235 25.56° C 45% - 0 mm - 0 W/m² -

* Rain latest hour (hover to see other rain measurements)
** Current wind speed in m/s (hover to see current wind gust speed)